Change the Weather History Date:

Friday, February 8, 2013

  Actual Average Record
Temperature  
Mean Temperature 44 °F -  
Max Temperature 51 °F 42 °F 62 °F (2007)
Min Temperature 37 °F 29 °F 5 °F (2012)
Degree Days  
Heating Degree Days 20    
Moisture  
Dew Point 44 °F    
Average Humidity 93    
Maximum Humidity 100    
Minimum Humidity 80    
Precipitation  
Precipitation 0.00 in - - ()
Sea Level Pressure  
Sea Level Pressure 29.63 in    
Wind  
Wind Speed 12 mph ()    
Max Wind Speed 20 mph    
Max Gust Speed -    
Visibility 6.0 miles    
Events Rain    
Averages and records for this station are not official NWS values.
T = Trace of Precipitation, MM = Missing Value Source: Averaged Metar Reports

Daily Weather History Graph

Daily Weather History Graph

Search for Another Location

Airport or City:

Trip Planner

Search our weather history database for the weather conditions in past years. The results will help you decide how hot, cold, wet, or windy it might be!

Date:

Astronomy

Feb. 08, 2013 Rise Set
Actual Time 7:16 AM EET 5:22 PM EET
Civil Twilight 6:45 AM EET 5:53 PM EET
Nautical Twilight 6:10 AM EET 6:28 PM EET
Astronomical Twilight 5:36 AM EET 7:02 PM EET
Moon 5:32 AM EET (2/8) 3:31 PM EET (2/8)
Length of Visible Light 11h 08m
Length of Day
10h 06m
Waning Crescent, 5% of the Moon is Illuminated
Feb 8
Waning Crescent
Feb 10
New
Feb 17
First Quarter
Feb 25
Full
Mar 4
Last Quarter

Hourly Weather History & Observations

Time (EET) Temp. Windchill Dew Point Humidity Pressure Visibility Wind Dir Wind Speed Gust Speed Precip Events Conditions
12:00 AM 47 °F - 45 °F 89% 29.62 in - South 17.9 mph - -  
12:00 AM 48.2 °F - 46.4 °F 93% 29.62 in 6.2 mi SSE 19.6 mph - N/A   Mostly Cloudy
1:00 AM 47 °F - 46 °F 92% 29.64 in - South 20.1 mph - -  
1:00 AM 46.4 °F 39.2 °F 46.4 °F 100% 29.59 in 6.2 mi South 18.4 mph - N/A   Scattered Clouds
2:00 AM 48 °F - 46 °F 89% 29.61 in - South 17.9 mph - -  
2:00 AM 44.6 °F 39.7 °F 44.6 °F 100% 29.59 in 6.2 mi SSE 9.2 mph - N/A   Partly Cloudy
3:00 AM 46 °F - 44 °F 90% 29.61 in - SSE 8.9 mph - -  
3:00 AM 46.4 °F 41.9 °F 46.4 °F 100% 29.59 in 6.2 mi South 9.2 mph - N/A   Drizzle
4:00 AM 46 °F - 45 °F 96% 29.61 in - South 6.7 mph - -  
4:00 AM 48.2 °F - 46.4 °F 93% 29.59 in 5.0 mi SSE 16.1 mph - N/A   Mostly Cloudy
5:00 AM 47 °F - 45 °F 91% 29.60 in - South 13.4 mph - -  
5:00 AM 46.4 °F 39.8 °F 46.4 °F 100% 29.59 in 6.2 mi SSE 16.1 mph - N/A   Mostly Cloudy
5:30 AM 46.4 °F 40.4 °F 46.4 °F 100% 29.59 in 6.2 mi SSE 13.8 mph - N/A   Mostly Cloudy
6:00 AM 47 °F - 44 °F 87% 29.60 in - SSE 11.2 mph - -  
6:00 AM 46.4 °F 40.4 °F 46.4 °F 100% 29.59 in 6.2 mi SSE 13.8 mph - N/A   Mostly Cloudy
6:30 AM 46.4 °F 40.4 °F 46.4 °F 100% 29.59 in 6.2 mi SSE 13.8 mph - N/A   Overcast
7:00 AM 47 °F - 44 °F 86% 29.60 in 6 mi South 11.2 mph - -   Clear
7:00 AM 46.4 °F 40.4 °F 44.6 °F 93% 29.59 in 6.2 mi SSE 13.8 mph - N/A   Mostly Cloudy
7:30 AM 46.4 °F 39.8 °F 44.6 °F 93% 29.59 in 6.2 mi SSE 16.1 mph - N/A   Mostly Cloudy
8:00 AM 47 °F - 44 °F 86% 29.61 in 6 mi South 11.2 mph - -   Partly Cloudy
8:00 AM 46.4 °F 41.1 °F 44.6 °F 93% 29.59 in 6.2 mi SSE 11.5 mph - N/A   Overcast
8:30 AM 46.4 °F 41.1 °F 44.6 °F 93% 29.59 in 6.2 mi South 11.5 mph - N/A Rain Light Rain
9:00 AM 46 °F - 44 °F 90% 29.62 in 6 mi South 6.7 mph - -   Overcast
9:00 AM 46.4 °F 42.9 °F 46.4 °F 100% 29.59 in 6.2 mi South 6.9 mph - N/A Rain Light Rain
9:30 AM 48.2 °F - 46.4 °F 93% 29.59 in 6.2 mi South 6.9 mph - N/A Rain Light Rain
10:00 AM 48 °F - 46 °F 89% 29.62 in 6 mi South 6.7 mph - -   Overcast
10:00 AM 46.4 °F 40.4 °F 46.4 °F 100% 29.59 in 6.2 mi SE 13.8 mph - N/A Rain Light Rain
10:30 AM 46.4 °F 41.9 °F 46.4 °F 100% 29.59 in 6.2 mi SSE 9.2 mph - N/A Rain Light Rain
11:00 AM 47 °F - 46 °F 94% 29.62 in 6 mi South 8.9 mph - -   Overcast
11:00 AM 46.4 °F 41.1 °F 46.4 °F 100% 29.59 in 6.2 mi SE 11.5 mph - N/A Rain Light Rain
11:30 AM 46.4 °F 40.4 °F 46.4 °F 100% 29.59 in 6.2 mi SE 13.8 mph - N/A   Light Drizzle
12:00 PM 47 °F - 45 °F 88% 29.61 in 6 mi South 13.4 mph - -   Overcast
12:00 PM 48.2 °F - 46.4 °F 93% 29.59 in 6.2 mi SSE 13.8 mph - N/A   Light Drizzle
12:30 PM 48.2 °F - 46.4 °F 93% 29.59 in 6.2 mi SSE 18.4 mph - N/A   Scattered Clouds
1:00 PM 50 °F - 46 °F 81% 29.60 in 6 mi South 15.7 mph - -   Mostly Cloudy
1:00 PM 50.0 °F - 46.4 °F 87% 29.59 in 6.2 mi SSE 19.6 mph - N/A   Scattered Clouds
1:30 PM 50.0 °F - 46.4 °F 87% 29.59 in 6.2 mi South 13.8 mph - N/A   Scattered Clouds
2:00 PM 50 °F - 46 °F 80% 29.61 in 6 mi South 15.7 mph - -   Mostly Cloudy
2:00 PM 51.8 °F - 46.4 °F 82% 29.59 in 6.2 mi South 13.8 mph - N/A   Scattered Clouds
2:30 PM 50.0 °F - 46.4 °F 87% 29.62 in 6.2 mi SSE 16.1 mph - N/A   Scattered Clouds
3:00 PM 49 °F - 45 °F 80% 29.62 in 6 mi South 17.9 mph - -   Mostly Cloudy
3:00 PM 50.0 °F - 46.4 °F 87% 29.62 in 6.2 mi SSE 16.1 mph - N/A   Mostly Cloudy
3:30 PM 48.2 °F - 46.4 °F 93% 29.62 in 6.2 mi SSE 11.5 mph - N/A   Scattered Clouds
4:00 PM 50 °F - 46 °F 80% 29.62 in 6 mi South 11.2 mph - -   Scattered Clouds
4:00 PM 48.2 °F - 46.4 °F 93% 29.62 in 6.2 mi South 9.2 mph - N/A   Scattered Clouds
4:30 PM 48.2 °F - 46.4 °F 93% 29.62 in 6.2 mi ENE 4.6 mph - N/A   Scattered Clouds
5:00 PM 49 °F - 45 °F 81% 29.63 in 6 mi South 2.2 mph - -   Overcast
5:00 PM 48.2 °F - 44.6 °F 87% 29.62 in 6.2 mi SSE 6.9 mph - N/A   Mostly Cloudy
5:30 PM 46.4 °F 41.9 °F 44.6 °F 93% 29.65 in 6.2 mi West 9.2 mph - N/A   Mostly Cloudy
6:00 PM 44 °F - 42 °F 89% 29.67 in 6 mi NW 6.7 mph - -   Overcast
6:00 PM 44.6 °F 38.8 °F 44.6 °F 100% 29.65 in 6.2 mi North 11.5 mph - N/A   Scattered Clouds
6:30 PM 42.8 °F 36.6 °F 42.8 °F 100% 29.68 in 5.6 mi North 11.5 mph - N/A   Mostly Cloudy
7:00 PM 42 °F - 40 °F 92% 29.69 in 6 mi NW 4.5 mph - -   Overcast
7:00 PM 42.8 °F 36.6 °F 41.0 °F 93% 29.68 in 5.6 mi NNW 11.5 mph - N/A   Mostly Cloudy
7:30 PM 41.0 °F 35.2 °F 41.0 °F 100% 29.68 in 5.0 mi NNW 9.2 mph - N/A   Mostly Cloudy
8:00 PM 42 °F - 40 °F 92% 29.71 in 6 mi WNW 4.5 mph - -   Overcast
8:00 PM 41.0 °F 33.5 °F 41.0 °F 100% 29.68 in 5.0 mi NNW 13.8 mph - N/A   Overcast
8:30 PM 41.0 °F 33.5 °F 39.2 °F 93% 29.71 in 6.2 mi NNW 13.8 mph - N/A   Mostly Cloudy
9:00 PM 41 °F - 39 °F 90% 29.72 in 6 mi WNW 4.5 mph - -   Overcast
9:00 PM 41.0 °F 33.5 °F 39.2 °F 93% 29.71 in 5.0 mi NNW 13.8 mph - N/A   Overcast
10:00 PM 39 °F - 38 °F 94% 29.73 in - WNW 6.7 mph - -  
10:00 PM 39.2 °F 30.5 °F 39.2 °F 100% 29.71 in 4.3 mi NNW 16.1 mph - N/A   Mostly Cloudy
11:00 PM 38 °F - 36 °F 89% 29.74 in - NW 6.7 mph - -  
11:00 PM 37.4 °F 27.5 °F 37.4 °F 100% 29.74 in 3.7 mi NNW 18.4 mph - N/A   Mostly Cloudy